Villa Grove, CO

10:33 PM MDT on September 29, 2016 (GMT -0600)
Monarch Pass

Weather History for KMYP - December, 2011

Change the Weather History Date:

Thursday, December 8, 2011

  Actual Average (KGUC) Record (KGUC)
Temperature  
Mean Temperature 14 °F -  
Max Temperature 19 °F 26 °F 48 °F (2015)
Min Temperature 8 °F 2 °F -34 °F (2005)
Degree Days  
Heating Degree Days 50    
Moisture  
Dew Point 9 °F    
Average Humidity 81    
Maximum Humidity 93    
Minimum Humidity 63    
Precipitation  
Precipitation 0.00 in - - ()
Sea Level Pressure  
Sea Level Pressure 30.16 in    
Wind  
Wind Speed 26 mph (WSW)    
Max Wind Speed 34 mph    
Max Gust Speed 33 mph    
Visibility 8 miles    
Events Snow    
Averages and records for this station are not official NWS values.
T = Trace of Precipitation, MM = Missing Value Source: NWS Daily Summary

Daily Weather History Graph

Daily Weather History Graph

Search for Another Location

Airport or City:

Trip Planner

Search our weather history database for the weather conditions in past years. The results will help you decide how hot, cold, wet, or windy it might be!

Date:

Astronomy

Dec. 08, 2011 Rise Set
Actual Time 7:09 AM MST 4:44 PM MST
Civil Twilight 6:40 AM MST 5:13 PM MST
Nautical Twilight 6:07 AM MST 5:46 PM MST
Astronomical Twilight 5:35 AM MST 6:18 PM MST
Moon 3:25 PM MST (12/8) 5:24 AM MST (12/8)
Length of Visible Light 10h 33m
Length of Day
9h 34m
Waxing Gibbous, 97% of the Moon is Illuminated
Dec 8
Waxing Gibbous
Dec 10
Full
Dec 17
Last Quarter
Dec 24
New
Dec 31
First Quarter

Hourly Weather History & Observations

Time (MST) Temp. Windchill Dew Point Humidity Pressure Visibility Wind Dir Wind Speed Gust Speed Precip Events Conditions
12:03 AM 19.4 °F 1.1 °F 8.6 °F 63% 30.19 in 10.0 mi West 27.6 mph 33.4 mph N/A   Clear
12:23 AM 19.4 °F 1.4 °F 8.6 °F 63% 30.18 in 10.0 mi West 26.5 mph - N/A   Clear
12:43 AM 19.4 °F 1.4 °F 8.6 °F 63% 30.17 in 10.0 mi West 26.5 mph - N/A   Clear
1:03 AM 17.6 °F -0.6 °F 8.6 °F 68% 30.17 in 10.0 mi West 25.3 mph - N/A   Clear
1:23 AM 17.6 °F -0.3 °F 8.6 °F 68% 30.16 in 10.0 mi West 24.2 mph - N/A   Clear
1:43 AM 17.6 °F -1.3 °F 8.6 °F 68% 30.16 in 10.0 mi West 27.6 mph - N/A   Clear
2:03 AM 17.6 °F -1.9 °F 8.6 °F 68% 30.15 in 10.0 mi West 29.9 mph - N/A   Clear
2:23 AM 17.6 °F -1.9 °F 8.6 °F 68% 30.15 in 10.0 mi West 29.9 mph - N/A   Clear
2:43 AM 17.6 °F -1.3 °F 8.6 °F 68% 30.15 in 10.0 mi West 27.6 mph - N/A   Clear
3:03 AM 17.6 °F -1.3 °F 8.6 °F 68% 30.15 in 10.0 mi West 27.6 mph - N/A   Clear
3:23 AM 17.6 °F -0.3 °F 8.6 °F 68% 30.15 in 10.0 mi West 24.2 mph - N/A   Clear
3:43 AM 15.8 °F -3.1 °F 8.6 °F 73% 30.14 in 10.0 mi West 25.3 mph - N/A   Clear
4:43 AM 17.6 °F -1.6 °F 8.6 °F 68% 30.14 in 10.0 mi West 28.8 mph - N/A   Clear
5:03 AM 15.8 °F -3.4 °F 8.6 °F 73% 30.14 in 10.0 mi West 26.5 mph - N/A   Clear
5:23 AM 14.0 °F -5.8 °F 8.6 °F 79% 30.13 in 10.0 mi West 26.5 mph - N/A   Clear
5:43 AM 14.0 °F -5.5 °F 8.6 °F 79% 30.14 in 10.0 mi WSW 25.3 mph - N/A   Clear
6:03 AM 14.0 °F -5.8 °F 8.6 °F 79% 30.14 in 10.0 mi West 26.5 mph - N/A   Clear
6:23 AM 14.0 °F -6.2 °F 8.6 °F 79% 30.14 in 10.0 mi WSW 27.6 mph - N/A   Clear
6:43 AM 12.2 °F -8.6 °F 8.6 °F 85% 30.14 in 10.0 mi WSW 27.6 mph - N/A   Clear
7:03 AM 14.0 °F -6.2 °F 8.6 °F 79% 30.14 in 10.0 mi West 27.6 mph - N/A   Clear
7:23 AM 14.0 °F -6.2 °F 8.6 °F 79% 30.14 in 10.0 mi West 27.6 mph - N/A   Clear
8:03 AM 14.0 °F -5.5 °F 8.6 °F 79% 30.15 in 10.0 mi West 25.3 mph - N/A   Clear
8:23 AM 14.0 °F -5.5 °F 8.6 °F 79% 30.15 in 10.0 mi West 25.3 mph - N/A   Clear
8:43 AM 14.0 °F -6.2 °F 6.8 °F 73% 30.15 in 10.0 mi West 27.6 mph - N/A   Clear
9:03 AM 12.2 °F -8.6 °F 6.8 °F 79% 30.15 in 10.0 mi West 27.6 mph - N/A   Clear
9:23 AM 14.0 °F -6.8 °F 8.6 °F 79% 30.16 in 10.0 mi West 29.9 mph - N/A   Clear
9:43 AM 14.0 °F -5.8 °F 8.6 °F 79% 30.16 in 10.0 mi WSW 26.5 mph - N/A   Clear
10:03 AM 14.0 °F -5.8 °F 8.6 °F 79% 30.16 in 10.0 mi WSW 26.5 mph 29.9 mph N/A   Clear
10:23 AM 14.0 °F -4.7 °F 8.6 °F 79% 30.16 in 10.0 mi WSW 23.0 mph 29.9 mph N/A   Clear
11:03 AM 14.0 °F -4.7 °F 10.4 °F 86% 30.16 in 10.0 mi WSW 23.0 mph - N/A   Clear
11:23 AM 14.0 °F -5.5 °F 10.4 °F 86% 30.16 in 10.0 mi WSW 25.3 mph 29.9 mph N/A   Clear
11:43 AM 14.0 °F -4.3 °F 10.4 °F 86% 30.15 in 10.0 mi WSW 21.9 mph 31.1 mph N/A   Clear
12:03 PM 14.0 °F -5.1 °F 10.4 °F 86% 30.16 in 10.0 mi West 24.2 mph 28.8 mph N/A   Clear
12:23 PM 14.0 °F -5.5 °F 10.4 °F 86% 30.16 in 10.0 mi West 25.3 mph - N/A   Clear
12:43 PM 15.8 °F -0.6 °F 10.4 °F 79% 30.15 in 10.0 mi WSW 18.4 mph 23.0 mph N/A   Clear
1:03 PM 17.6 °F 0.1 °F 12.2 °F 79% 30.14 in 10.0 mi WSW 23.0 mph 28.8 mph N/A   Clear
1:23 PM 17.6 °F 1.3 °F 12.2 °F 79% 30.15 in 10.0 mi WSW 19.6 mph 27.6 mph N/A   Scattered Clouds
2:03 PM 14.0 °F -2.5 °F 10.4 °F 86% 30.15 in 10.0 mi SW 17.3 mph 27.6 mph N/A   Mostly Cloudy
2:23 PM 15.8 °F -1.1 °F 12.2 °F 86% 30.15 in 10.0 mi SW 19.6 mph 23.0 mph N/A   Mostly Cloudy
2:43 PM 15.8 °F -1.5 °F 12.2 °F 86% 30.15 in 10.0 mi WSW 20.7 mph 25.3 mph N/A   Mostly Cloudy
3:23 PM 15.8 °F -1.5 °F 12.2 °F 86% 30.15 in 10.0 mi WSW 20.7 mph 28.8 mph N/A   Mostly Cloudy
3:43 PM 14.0 °F -2.5 °F 12.2 °F 93% 30.16 in 10.0 mi WSW 17.3 mph 25.3 mph N/A   Mostly Cloudy
4:23 PM 14.0 °F -2.0 °F 10.4 °F 86% 30.17 in 10.0 mi SW 16.1 mph - N/A   Scattered Clouds
4:43 PM 14.0 °F -4.3 °F 10.4 °F 86% 30.16 in 10.0 mi WSW 21.9 mph - N/A   Clear
5:03 PM 12.2 °F -5.8 °F 10.4 °F 92% 30.17 in 10.0 mi WSW 19.6 mph 24.2 mph N/A   Clear
5:23 PM 12.2 °F -6.7 °F 10.4 °F 92% 30.17 in 10.0 mi West 21.9 mph 26.5 mph N/A   Clear
5:43 PM 12.2 °F -5.8 °F 10.4 °F 92% 30.18 in 10.0 mi WSW 19.6 mph 24.2 mph N/A   Clear
6:03 PM 12.2 °F -8.6 °F 10.4 °F 92% 30.17 in 10.0 mi West 27.6 mph 33.4 mph N/A   Clear
6:23 PM 12.2 °F -7.9 °F 8.6 °F 85% 30.18 in 10.0 mi West 25.3 mph 29.9 mph N/A   Clear
6:43 PM 12.2 °F -8.9 °F 10.4 °F 92% 30.19 in 10.0 mi West 28.8 mph - N/A   Clear
7:03 PM 12.2 °F -7.1 °F 10.4 °F 92% 30.19 in 10.0 mi WSW 23.0 mph - N/A   Clear
7:23 PM 12.2 °F -7.1 °F 10.4 °F 92% 30.20 in 10.0 mi WSW 23.0 mph 28.8 mph N/A   Mostly Cloudy
7:43 PM 12.2 °F -7.5 °F 8.6 °F 85% 30.19 in 0.2 mi WSW 24.2 mph 29.9 mph N/A Snow Light Snow
8:03 PM 12.2 °F - 8.6 °F 85% 30.20 in 0.2 mi North - - N/A Snow Light Snow
8:23 PM 12.2 °F - 10.4 °F 92% 30.19 in 0.2 mi North - - N/A Snow Heavy Snow
9:03 PM 12.2 °F - 8.6 °F 85% 30.19 in 0.2 mi North - - N/A Snow Light Snow
9:23 PM 10.4 °F -13.0 °F 8.6 °F 92% 30.20 in 0.2 mi SE 34.5 mph - N/A Snow Light Snow
9:43 PM 10.4 °F -11.0 °F 8.6 °F 92% 30.19 in 0.2 mi WSW 27.6 mph - N/A Snow Light Snow
10:03 PM 10.4 °F - 8.6 °F 92% 30.19 in 0.2 mi North - - N/A Snow Light Snow
10:23 PM 10.4 °F - 6.8 °F 85% 30.20 in 0.2 mi North - - N/A Snow Light Snow
10:43 PM 10.4 °F - 6.8 °F 85% 30.19 in 0.2 mi North - - N/A Snow Light Snow
11:03 PM 8.6 °F -14.1 °F 5.0 °F 85% 30.19 in 0.5 mi West 29.9 mph - N/A Snow Light Snow
11:23 PM 8.6 °F -14.1 °F 5.0 °F 85% 30.20 in 5.0 mi West 29.9 mph - N/A   Scattered Clouds
11:43 PM 8.6 °F -12.7 °F 5.0 °F 85% 30.20 in 1.5 mi West 25.3 mph - N/A Snow Light Snow